Zurück zum Katalog

STARLINK-4013

AktivKommunikationVLEO
NORAD 52604·PAYLOAD·🇺🇸 United States

Gestartet May 14, 2022 von Cape Canaveral Space Force Station

Loading…

Nächste Überflüge (nächste 24 Stunden)

TLE

AktuellSource: CelesTrak SupGP

Epoche: Sep 14, 2026, 22:01 UTC

1 52604C 22052G   26257.91784722 -.00020614  00000+0 -58983-3 0  2577
2 52604  53.1599 141.5663 0001360  83.9511 218.6495 15.35406642    16

Verfolge STARLINK-4013 in Echtzeit mit AllMySat

Download on the App Store